This is the latest recevied weather packets stored in our database for station/object VK4HIT-13. If no packets are shown the sender has not sent any weather packets the latest 10 day(s).
| Time | Temp. | Humidity | Pressure | Rain* | Wind** | Luminosity | Snow |
|---|---|---|---|---|---|---|---|
| 1777866273 | 25° C | 61% | 1016.3 hPa | 0 mm | - | - | - |
| 1777865973 | 25° C | 61% | 1016.4 hPa | 0 mm | - | - | - |
| 1777865673 | 25° C | 60% | 1016.3 hPa | 0 mm | - | - | - |
| 1777865373 | 25° C | 59% | 1016.4 hPa | 0 mm | - | - | - |
| 1777865073 | 25.56° C | 57% | 1016.4 hPa | 0 mm | - | - | - |
| 1777864773 | 26.67° C | 54% | 1016.5 hPa | 0 mm | - | - | - |
| 1777864473 | 27.22° C | 53% | 1016.5 hPa | 0 mm | - | - | - |
| 1777864173 | 27.22° C | 56% | 1016.5 hPa | 0 mm | - | - | - |
| 1777863873 | 27.22° C | 55% | 1016.5 hPa | 0 mm | - | - | - |
| 1777863573 | 27.22° C | 56% | 1016.6 hPa | 0 mm | - | - | - |
| 1777863273 | 27.22° C | 54% | 1016.7 hPa | 0 mm | - | - | - |
| 1777862973 | 27.22° C | 54% | 1016.9 hPa | 0 mm | - | - | - |
| 1777862673 | 26.67° C | 54% | 1016.9 hPa | 0 mm | - | - | - |
| 1777862373 | 26.67° C | 53% | 1016.9 hPa | 0 mm | - | - | - |
| 1777862073 | 26.67° C | 53% | 1017 hPa | 0 mm | - | - | - |
| 1777861773 | 27.22° C | 54% | 1017 hPa | 0 mm | - | - | - |
| 1777861473 | 26.67° C | 52% | 1017.1 hPa | 0 mm | - | - | - |
| 1777861173 | 26.67° C | 56% | 1017.3 hPa | 0 mm | - | - | - |
| 1777860873 | 26.67° C | 56% | 1017.3 hPa | 0 mm | - | - | - |
| 1777860573 | 26.11° C | 58% | 1017.4 hPa | 0 mm | - | - | - |
| 1777860273 | 26.11° C | 60% | 1017.5 hPa | 0 mm | - | - | - |
| 1777859973 | 25.56° C | 62% | 1017.5 hPa | 0 mm | - | - | - |
| 1777859673 | 25.56° C | 62% | 1017.6 hPa | 0 mm | - | - | - |
| 1777859373 | 25° C | 64% | 1017.6 hPa | 0 mm | - | - | - |
| 1777859073 | 24.44° C | 68% | 1017.8 hPa | 0 mm | - | - | - |
* Rain latest hour (hover to see other rain measurements)
** Current wind speed in m/s (hover to see current wind gust speed)